FW9014 Weather Reports


time (UTC)temp
C
wind
direction
speed
KPH
gust
KPH
rain 1hr
cm
rain 24hr
cm
rain mn
cm
humidity
%
barometer
mb
20260507064553 17 22 3.2 20.9 0.00 0.03 0.00 88 1014.4
20260507063049 18 51 6.4 17.7 0.00 0.03 0.00 89 1014.3
20260507061547 18 42 8.0 20.9 0.00 0.03 0.00 89 1014.6
20260507060047 18 24 4.8 14.5 0.00 0.03 0.00 89 1014.7
20260507054550 18 0 3.2 17.7 0.00 0.03 0.00 88 1014.5
20260507053055 18 25 6.4 25.7 0.00 0.03 0.00 88 1014.5
20260507051549 18 5 17.7 30.6 0.00 0.03 0.00 88 1014.5
20260507050047 19 9 17.7 27.4 0.00 0.03 0.00 87 1014.4
20260507044550 19 22 19.3 29.0 0.00 0.03 0.03 87 1014.4
20260507043050 19 14 12.9 27.4 0.00 0.03 0.03 86 1013.9
20260507041555 20 9 19.3 27.4 0.00 0.03 0.03 86 1014.6
20260507040058 20 9 11.3 22.5 0.00 0.03 0.03 85 1014.2
20260507034555 20 19 9.7 25.7 0.00 0.03 0.03 85 1013.6
20260507033047 20 24 12.9 25.7 0.00 0.03 0.03 84 1013.6
20260507031543 21 9 16.1 25.7 0.00 0.03 0.03 84 1013.0
20260507030053 21 22 14.5 24.1 0.00 0.03 0.03 84 1012.9
20260507024547 21 16 11.3 19.3 0.00 0.03 0.03 85 1012.6
20260507023047 21 30 14.5 24.1 0.00 0.03 0.03 85 1012.4
20260507021548 22 25 11.3 22.5 0.00 0.03 0.03 84 1012.2
20260507020053 22 360 12.9 22.5 0.00 0.03 0.03 85 1012.0
20260507014601 22 22 19.3 25.7 0.00 0.03 0.03 85 1011.5
20260507013047 22 13 14.5 24.1 0.00 0.03 0.03 84 1011.2
20260507011602 23 11 20.9 27.4 0.00 0.03 0.03 85 1011.3
20260507010046 23 5 20.9 27.4 0.00 0.03 0.03 85 1010.9
20260507004551 23 360 20.9 30.6 0.00 0.03 0.03 85 1010.6
20260507003047 23 5 20.9 27.4 0.00 0.03 0.03 85 1010.2
20260507001605 23 5 16.1 35.4 0.00 0.03 0.03 85 1009.9
20260507000056 24 5 30.6 43.5 0.00 0.03 0.03 84 1009.8
20260506234548 24 17 24.1 35.4 0.00 0.03 0.03 86 1009.7
20260506233046 24 350 30.6 38.6 0.00 0.03 0.03 86 1009.5
20260506231545 27 350 6.4 9.7 0.00 0.03 0.03 85 1009.4
20260506230054 28 0 0.0 0.0 0.00 0.03 0.03 82 1009.1
20260506224549 27 0 0.0 0.0 0.00 0.03 0.03 84 1008.8
20260506223048 28 336 3.2 6.4 0.00 0.03 0.03 83 1008.9
20260506221547 28 174 0.0 0.0 0.00 0.03 0.03 79 1008.8
20260506220058 29 0 1.6 4.8 0.00 0.03 0.03 78 1008.7
20260506214548 28 174 0.0 3.2 0.00 0.05 0.03 79 1008.7
20260506213041 28 0 0.0 3.2 0.00 0.05 0.03 79 1008.7
20260506211542 27 0 0.0 1.6 0.00 0.05 0.03 81 1009.1
20260506210057 27 0 0.0 3.2 0.00 0.05 0.03 84 1009.1
20260506204550 27 286 0.0 4.8 0.00 0.05 0.03 84 1009.3
20260506203137 27 300 3.2 6.4 0.00 0.05 0.03 82 1009.5
20260506201548 27 0 0.0 1.6 0.00 0.05 0.03 82 1009.6
20260506200052 27 0 0.0 4.8 0.00 0.05 0.03 82 1009.6
20260506194549 27 284 1.6 4.8 0.00 0.05 0.03 82 1009.7
20260506193048 28 0 0.0 3.2 0.00 0.05 0.03 80 1009.7
20260506191554 28 203 3.2 8.0 0.00 0.05 0.03 80 1009.8
20260506190057 28 194 8.0 11.3 0.00 0.05 0.03 80 1010.0
20260506184559 27 196 1.6 8.0 0.00 0.05 0.03 84 1010.1
20260506183058 26 159 4.8 9.7 0.00 0.05 0.03 86 1010.3
20260506181545 26 147 3.2 9.7 0.00 0.05 0.03 87 1010.9
20260506180048 26 0 0.0 4.8 0.00 0.05 0.03 86 1011.3
20260506174555 26 146 3.2 6.4 0.00 0.05 0.03 86 1011.6
20260506173054 26 180 0.0 4.8 0.00 0.05 0.03 87 1011.7
20260506171550 25 0 0.0 0.0 0.00 0.05 0.03 87 1011.9
20260506170053 25 0 0.0 6.4 0.00 0.05 0.03 87 1012.0
20260506164552 25 184 4.8 11.3 0.00 0.05 0.03 87 1011.8
20260506163104 25 175 9.7 14.5 0.03 0.05 0.03 87 1011.4
20260506161547 25 175 8.0 11.3 0.03 0.05 0.03 88 1011.3
20260506160053 25 174 9.7 12.9 0.03 0.05 0.03 90 1011.2
20260506154555 24 164 6.4 11.3 0.03 0.05 0.03 92 1011.3
20260506153109 24 157 6.4 9.7 0.00 0.03 0.00 92 1011.2
20260506151546 24 171 4.8 8.0 0.00 0.03 0.00 93 1011.3
20260506150048 23 156 6.4 9.7 0.00 0.03 0.00 93 1011.0
20260506144548 23 180 9.7 14.5 0.00 0.03 0.00 93 1011.0
20260506143045 23 179 9.7 12.9 0.00 0.03 0.00 93 1010.7
20260506141549 23 173 9.7 14.5 0.00 0.03 0.00 93 1010.7
20260506140051 23 173 9.7 12.9 0.00 0.03 0.00 93 1010.6
20260506134547 23 177 6.4 9.7 0.00 0.03 0.00 93 1010.7
20260506133052 23 172 8.0 11.3 0.00 0.03 0.00 93 1010.8
20260506131546 23 163 6.4 12.9 0.00 0.03 0.00 93 1010.9
20260506130047 23 157 4.8 11.3 0.00 0.03 0.00 93 1010.8
20260506124555 23 155 4.8 11.3 0.00 0.03 0.00 93 1010.7
20260506123050 23 166 8.0 9.7 0.00 0.03 0.00 93 1010.6
20260506121602 23 165 6.4 9.7 0.00 0.03 0.00 93 1010.5
20260506120048 23 182 6.4 9.7 0.00 0.03 0.00 93 1010.3
20260506114546 23 179 4.8 12.9 0.00 0.03 0.00 93 1010.0
20260506113050 23 193 6.4 9.7 0.00 0.03 0.00 93 1009.9
20260506111551 23 189 8.0 14.5 0.00 0.03 0.00 92 1009.8
20260506110056 23 192 9.7 12.9 0.00 0.03 0.00 92 1009.7
20260506104551 23 179 11.3 16.1 0.00 0.03 0.00 92 1009.6
20260506103051 23 177 11.3 17.7 0.00 0.03 0.00 92 1009.4
20260506101556 23 190 11.3 16.1 0.00 0.03 0.00 92 1009.6
20260506100055 23 180 9.7 14.5 0.00 0.03 0.00 92 1009.4
20260506094553 23 175 8.0 16.1 0.00 0.03 0.00 92 1009.3
20260506093051 23 182 14.5 17.7 0.00 0.03 0.00 91 1009.1
20260506091548 23 201 17.7 22.5 0.00 0.03 0.00 91 1009.0
20260506090100 23 196 16.1 22.5 0.00 0.03 0.00 91 1009.2
20260506084552 23 211 14.5 19.3 0.00 0.03 0.00 91 1009.2
20260506083046 23 206 14.5 19.3 0.00 0.03 0.00 91 1009.2
20260506081544 23 184 16.1 25.7 0.00 0.03 0.00 91 1009.1
20260506073048 23 176 16.1 20.9 0.00 0.03 0.00 91 1009.4
20260506071548 23 196 14.5 17.7 0.00 0.03 0.00 91 1009.6